Year,Month,Day,Hour,Minute,Value (Times are PST for temperature in C)
2006,08,13,00,00,13.10
2006,08,13,00,01,13.10
2006,08,13,00,02,13.10
2006,08,13,00,03,13.10
2006,08,13,00,04,13.10
2006,08,13,00,05,13.10
2006,08,13,00,06,13.10
2006,08,13,00,07,13.10
2006,08,13,00,08,13.10
2006,08,13,00,09,13.10
2006,08,13,00,10,13.10
2006,08,13,00,11,13.00
2006,08,13,00,12,13.00
2006,08,13,00,13,13.00
2006,08,13,00,14,13.00
2006,08,13,00,15,13.00
2006,08,13,00,16,13.00
2006,08,13,00,17,13.00
2006,08,13,00,18,13.00
2006,08,13,00,19,13.00
2006,08,13,00,20,13.00
2006,08,13,00,21,13.00
2006,08,13,00,22,13.00
2006,08,13,00,23,13.00
2006,08,13,00,24,13.00
2006,08,13,00,25,13.00
2006,08,13,00,26,13.00
2006,08,13,00,27,13.00
2006,08,13,00,28,13.00
2006,08,13,00,29,13.00
2006,08,13,00,30,13.00
2006,08,13,00,31,13.00
2006,08,13,00,32,13.00
2006,08,13,00,33,12.90
2006,08,13,00,34,12.90
2006,08,13,00,35,12.90
2006,08,13,00,36,12.80
2006,08,13,00,37,12.80
2006,08,13,00,38,12.80
2006,08,13,00,39,12.80
2006,08,13,00,40,12.80
2006,08,13,00,41,12.80
2006,08,13,00,42,12.80
2006,08,13,00,43,12.80
2006,08,13,00,44,12.80
2006,08,13,00,45,12.80
2006,08,13,00,46,12.80
2006,08,13,00,47,12.80
2006,08,13,00,48,12.80
2006,08,13,00,49,12.80
2006,08,13,00,50,12.80
2006,08,13,00,51,12.70
2006,08,13,00,52,12.70
2006,08,13,00,53,12.70
2006,08,13,00,54,12.70
2006,08,13,00,55,12.70
2006,08,13,00,56,12.60
2006,08,13,00,57,12.60
2006,08,13,00,58,12.60
2006,08,13,00,59,12.60
2006,08,13,01,00,12.50
2006,08,13,01,01,12.50
2006,08,13,01,02,12.50
2006,08,13,01,03,12.50
2006,08,13,01,04,12.50
2006,08,13,01,05,12.40
2006,08,13,01,06,12.40
2006,08,13,01,07,12.40
2006,08,13,01,08,12.40
2006,08,13,01,09,12.40
2006,08,13,01,10,12.40
2006,08,13,01,11,12.40
2006,08,13,01,12,12.40
2006,08,13,01,13,12.40
2006,08,13,01,14,12.40
2006,08,13,01,15,12.40
2006,08,13,01,16,12.40
2006,08,13,01,17,12.40
2006,08,13,01,18,12.40
2006,08,13,01,19,12.40
2006,08,13,01,20,12.40
2006,08,13,01,21,12.40
2006,08,13,01,22,12.40
2006,08,13,01,23,12.40
2006,08,13,01,24,12.30
2006,08,13,01,25,12.30
2006,08,13,01,26,12.30
2006,08,13,01,27,12.30
2006,08,13,01,28,12.40
2006,08,13,01,29,12.40
2006,08,13,01,30,12.40
2006,08,13,01,31,12.50
2006,08,13,01,32,12.50
2006,08,13,01,33,12.50
2006,08,13,01,34,12.40
2006,08,13,01,35,12.40
2006,08,13,01,36,12.40
2006,08,13,01,37,12.40
2006,08,13,01,38,12.50
2006,08,13,01,39,12.50
2006,08,13,01,40,12.60
2006,08,13,01,41,12.60
2006,08,13,01,42,12.70
2006,08,13,01,43,12.80
2006,08,13,01,44,12.80
2006,08,13,01,45,12.80
2006,08,13,01,46,12.80
2006,08,13,01,47,12.80
2006,08,13,01,48,12.80
2006,08,13,01,49,12.80
2006,08,13,01,50,12.80
2006,08,13,01,51,12.80
2006,08,13,01,52,12.80
2006,08,13,01,53,12.80
2006,08,13,01,54,12.70
2006,08,13,01,55,12.60
2006,08,13,01,56,12.60
2006,08,13,01,57,12.50
2006,08,13,01,58,12.50
2006,08,13,01,59,12.40
2006,08,13,02,00,12.40
2006,08,13,02,01,12.30
2006,08,13,02,02,12.30
2006,08,13,02,03,12.30
2006,08,13,02,04,12.20
2006,08,13,02,05,12.20
2006,08,13,02,06,12.20
2006,08,13,02,07,12.10
2006,08,13,02,08,12.10
2006,08,13,02,09,12.10
2006,08,13,02,10,12.10
2006,08,13,02,11,12.10
2006,08,13,02,12,12.10
2006,08,13,02,13,12.10
2006,08,13,02,14,12.10
2006,08,13,02,15,12.20
2006,08,13,02,16,12.20
2006,08,13,02,17,12.20
2006,08,13,02,18,12.20
2006,08,13,02,19,12.20
2006,08,13,02,20,12.20
2006,08,13,02,21,12.20
2006,08,13,02,22,12.20
2006,08,13,02,23,12.20
2006,08,13,02,24,12.20
2006,08,13,02,25,12.20
2006,08,13,02,26,12.30
2006,08,13,02,27,12.30
2006,08,13,02,28,12.30
2006,08,13,02,29,12.40
2006,08,13,02,30,12.40
2006,08,13,02,31,12.40
2006,08,13,02,32,12.40
2006,08,13,02,33,12.40
2006,08,13,02,34,12.40
2006,08,13,02,35,12.40
2006,08,13,02,36,12.30
2006,08,13,02,37,12.30
2006,08,13,02,38,12.30
2006,08,13,02,39,12.30
2006,08,13,02,40,12.30
2006,08,13,02,41,12.30
2006,08,13,02,42,12.30
2006,08,13,02,43,12.30
2006,08,13,02,44,12.30
2006,08,13,02,45,12.30
2006,08,13,02,46,12.30
2006,08,13,02,47,12.30
2006,08,13,02,48,12.30
2006,08,13,02,49,12.30
2006,08,13,02,50,12.30
2006,08,13,02,51,12.30
2006,08,13,02,52,12.30
2006,08,13,02,53,12.30
2006,08,13,02,54,12.30
2006,08,13,02,55,12.30
2006,08,13,02,56,12.30
2006,08,13,02,57,12.30
2006,08,13,02,58,12.30
2006,08,13,02,59,12.30
2006,08,13,03,00,12.30
2006,08,13,03,01,12.30
2006,08,13,03,02,12.30
2006,08,13,03,03,12.30
2006,08,13,03,04,12.20
2006,08,13,03,05,12.20
2006,08,13,03,06,12.20
2006,08,13,03,07,12.20
2006,08,13,03,08,12.10
2006,08,13,03,09,12.10
2006,08,13,03,10,12.10
2006,08,13,03,11,12.00
2006,08,13,03,12,12.00
2006,08,13,03,13,12.00
2006,08,13,03,14,12.00
2006,08,13,03,15,12.00
2006,08,13,03,16,12.00
2006,08,13,03,17,12.00
2006,08,13,03,18,12.00
2006,08,13,03,19,12.00
2006,08,13,03,20,12.00
2006,08,13,03,21,12.00
2006,08,13,03,22,11.90
2006,08,13,03,23,11.90
2006,08,13,03,24,11.90
2006,08,13,03,25,11.80
2006,08,13,03,26,11.80
2006,08,13,03,27,11.80
2006,08,13,03,28,11.80
2006,08,13,03,29,11.80
2006,08,13,03,30,11.80
2006,08,13,03,31,11.80
2006,08,13,03,32,11.80
2006,08,13,03,33,11.80
2006,08,13,03,34,11.80
2006,08,13,03,35,11.80
2006,08,13,03,36,11.80
2006,08,13,03,37,11.70
2006,08,13,03,38,11.60
2006,08,13,03,39,11.60
2006,08,13,03,40,11.60
2006,08,13,03,41,11.60
2006,08,13,03,42,11.60
2006,08,13,03,43,11.60
2006,08,13,03,44,11.60
2006,08,13,03,45,11.60
2006,08,13,03,46,11.60
2006,08,13,03,47,11.60
2006,08,13,03,48,11.50
2006,08,13,03,49,11.40
2006,08,13,03,50,11.40
2006,08,13,03,51,11.40
2006,08,13,03,52,11.40
2006,08,13,03,53,11.40
2006,08,13,03,54,11.40
2006,08,13,03,55,11.40
2006,08,13,03,56,11.40
2006,08,13,03,57,11.40
2006,08,13,03,58,11.40
2006,08,13,03,59,11.40
2006,08,13,04,00,11.30
2006,08,13,04,01,11.30
2006,08,13,04,02,11.30
2006,08,13,04,03,11.30
2006,08,13,04,04,11.40
2006,08,13,04,05,11.40
2006,08,13,04,06,11.40
2006,08,13,04,07,11.40
2006,08,13,04,08,11.40
2006,08,13,04,09,11.40
2006,08,13,04,10,11.40
2006,08,13,04,11,11.40
2006,08,13,04,12,11.40
2006,08,13,04,13,11.40
2006,08,13,04,14,11.40
2006,08,13,04,15,11.40
2006,08,13,04,16,11.40
2006,08,13,04,17,11.40
2006,08,13,04,18,11.40
2006,08,13,04,19,11.30
2006,08,13,04,20,11.30
2006,08,13,04,21,11.20
2006,08,13,04,22,11.30
2006,08,13,04,23,11.30
2006,08,13,04,24,11.30
2006,08,13,04,25,11.30
2006,08,13,04,26,11.40
2006,08,13,04,27,11.40
2006,08,13,04,28,11.40
2006,08,13,04,29,11.40
2006,08,13,04,30,11.40
2006,08,13,04,31,11.40
2006,08,13,04,32,11.40
2006,08,13,04,33,11.40
2006,08,13,04,34,11.50
2006,08,13,04,35,11.60
2006,08,13,04,36,11.60
2006,08,13,04,37,11.60
2006,08,13,04,38,11.60
2006,08,13,04,39,11.60
2006,08,13,04,40,11.60
2006,08,13,04,41,11.60
2006,08,13,04,42,11.60
2006,08,13,04,43,11.60
2006,08,13,04,44,11.60
2006,08,13,04,45,11.50
2006,08,13,04,46,11.60
2006,08,13,04,47,11.60
2006,08,13,04,48,11.50
2006,08,13,04,49,11.40
2006,08,13,04,50,11.40
2006,08,13,04,51,11.40
2006,08,13,04,52,11.40
2006,08,13,04,53,11.40
2006,08,13,04,54,11.40
2006,08,13,04,55,11.30
2006,08,13,04,56,11.30
2006,08,13,04,57,11.30
2006,08,13,04,58,11.20
2006,08,13,04,59,11.20
2006,08,13,05,00,11.20
2006,08,13,05,01,11.20
2006,08,13,05,02,11.10
2006,08,13,05,03,11.10
2006,08,13,05,04,11.10
2006,08,13,05,05,11.10
2006,08,13,05,06,11.10
2006,08,13,05,07,11.10
2006,08,13,05,08,11.10
2006,08,13,05,09,11.10
2006,08,13,05,10,11.10
2006,08,13,05,11,11.10
2006,08,13,05,12,11.10
2006,08,13,05,13,11.10
2006,08,13,05,14,11.10
2006,08,13,05,15,11.10
2006,08,13,05,16,11.10
2006,08,13,05,17,11.10
2006,08,13,05,18,11.10
2006,08,13,05,19,11.10
2006,08,13,05,20,11.10
2006,08,13,05,21,11.10
2006,08,13,05,22,11.10
2006,08,13,05,23,11.10
2006,08,13,05,24,11.10
2006,08,13,05,25,11.10
2006,08,13,05,26,11.10
2006,08,13,05,27,11.10
2006,08,13,05,28,11.10
2006,08,13,05,29,11.10
2006,08,13,05,30,11.10
2006,08,13,05,31,11.10
2006,08,13,05,32,11.10
2006,08,13,05,33,11.10
2006,08,13,05,34,11.10
2006,08,13,05,35,11.10
2006,08,13,05,36,11.10
2006,08,13,05,37,11.00
2006,08,13,05,38,10.90
2006,08,13,05,39,10.90
2006,08,13,05,40,11.00
2006,08,13,05,41,11.10
2006,08,13,05,42,11.00
2006,08,13,05,43,10.90
2006,08,13,05,44,10.90
2006,08,13,05,45,10.90
2006,08,13,05,46,10.90
2006,08,13,05,47,11.10
2006,08,13,05,48,11.10
2006,08,13,05,49,11.10
2006,08,13,05,50,11.20
2006,08,13,05,51,11.20
2006,08,13,05,52,11.30
2006,08,13,05,53,11.30
2006,08,13,05,54,11.30
2006,08,13,05,55,11.30
2006,08,13,05,56,11.30
2006,08,13,05,57,11.40
2006,08,13,05,58,11.40
2006,08,13,05,59,11.40
2006,08,13,06,00,11.40
2006,08,13,06,01,11.40
2006,08,13,06,02,11.40
2006,08,13,06,03,11.40
2006,08,13,06,04,11.40
2006,08,13,06,05,11.40
2006,08,13,06,06,11.40
2006,08,13,06,07,11.30
2006,08,13,06,08,11.30
2006,08,13,06,09,11.20
2006,08,13,06,10,11.10
2006,08,13,06,11,11.10
2006,08,13,06,12,11.00
2006,08,13,06,13,10.90
2006,08,13,06,14,10.90
2006,08,13,06,15,10.80
2006,08,13,06,16,10.70
2006,08,13,06,17,10.70
2006,08,13,06,18,10.60
2006,08,13,06,19,10.60
2006,08,13,06,20,10.60
2006,08,13,06,21,10.60
2006,08,13,06,22,10.60
2006,08,13,06,23,10.40
2006,08,13,06,24,10.40
2006,08,13,06,25,10.40
2006,08,13,06,26,10.40
2006,08,13,06,27,10.40
2006,08,13,06,28,10.50
2006,08,13,06,29,10.60
2006,08,13,06,30,10.60
2006,08,13,06,31,10.60
2006,08,13,06,32,10.60
2006,08,13,06,33,10.60
2006,08,13,06,34,10.60
2006,08,13,06,35,10.60
2006,08,13,06,36,10.60
2006,08,13,06,37,10.60
2006,08,13,06,38,10.70
2006,08,13,06,39,10.70
2006,08,13,06,40,10.80
2006,08,13,06,41,10.80
2006,08,13,06,42,10.80
2006,08,13,06,43,10.90
2006,08,13,06,44,10.90
2006,08,13,06,45,10.90
2006,08,13,06,46,11.00
2006,08,13,06,47,11.10
2006,08,13,06,48,11.10
2006,08,13,06,49,11.20
2006,08,13,06,50,11.20
2006,08,13,06,51,11.20
2006,08,13,06,52,11.20
2006,08,13,06,53,11.30
2006,08,13,06,54,11.30
2006,08,13,06,55,11.30
2006,08,13,06,56,11.40
2006,08,13,06,57,11.40
2006,08,13,06,58,11.40
2006,08,13,06,59,11.50
2006,08,13,07,00,11.60
2006,08,13,07,01,11.60
2006,08,13,07,02,11.70
2006,08,13,07,03,11.70
2006,08,13,07,04,11.80
2006,08,13,07,05,11.90
2006,08,13,07,06,11.90
2006,08,13,07,07,12.00
2006,08,13,07,08,12.00
2006,08,13,07,09,12.10
2006,08,13,07,10,12.10
2006,08,13,07,11,12.20
2006,08,13,07,12,12.20
2006,08,13,07,13,12.30
2006,08,13,07,14,12.30
2006,08,13,07,15,12.30
2006,08,13,07,16,12.30
2006,08,13,07,17,12.40
2006,08,13,07,18,12.40
2006,08,13,07,19,12.40
2006,08,13,07,20,12.40
2006,08,13,07,21,12.50
2006,08,13,07,22,12.50
2006,08,13,07,23,12.50
2006,08,13,07,24,12.60
2006,08,13,07,25,12.60
2006,08,13,07,26,12.70
2006,08,13,07,27,12.70
2006,08,13,07,28,12.80
2006,08,13,07,29,12.80
2006,08,13,07,30,12.80
2006,08,13,07,31,12.90
2006,08,13,07,32,13.00
2006,08,13,07,33,13.10
2006,08,13,07,34,13.10
2006,08,13,07,35,13.20
2006,08,13,07,36,13.30
2006,08,13,07,37,13.30
2006,08,13,07,38,13.40
2006,08,13,07,39,13.40
2006,08,13,07,40,13.40
2006,08,13,07,41,13.50
2006,08,13,07,42,13.50
2006,08,13,07,43,13.60
2006,08,13,07,44,13.60
2006,08,13,07,45,13.60
2006,08,13,07,46,13.60
2006,08,13,07,47,13.60
2006,08,13,07,48,13.60
2006,08,13,07,49,13.60
2006,08,13,07,50,13.60
2006,08,13,07,51,13.60
2006,08,13,07,52,13.70
2006,08,13,07,53,13.70
2006,08,13,07,54,13.70
2006,08,13,07,55,13.70
2006,08,13,07,56,13.70
2006,08,13,07,57,13.80
2006,08,13,07,58,13.80
2006,08,13,07,59,13.80
2006,08,13,08,00,13.80
2006,08,13,08,01,13.90
2006,08,13,08,02,13.90
2006,08,13,08,03,14.00
2006,08,13,08,04,14.00
2006,08,13,08,05,14.10
2006,08,13,08,06,14.20
2006,08,13,08,07,14.20
2006,08,13,08,08,14.30
2006,08,13,08,09,14.40
2006,08,13,08,10,14.50
2006,08,13,08,11,14.60
2006,08,13,08,12,14.80
2006,08,13,08,13,14.90
2006,08,13,08,14,15.00
2006,08,13,08,15,15.20
2006,08,13,08,16,15.30
2006,08,13,08,17,15.50
2006,08,13,08,18,15.70
2006,08,13,08,19,15.80
2006,08,13,08,20,16.00
2006,08,13,08,21,16.10
2006,08,13,08,22,16.20
2006,08,13,08,23,16.30
2006,08,13,08,24,16.40
2006,08,13,08,25,16.60
2006,08,13,08,26,16.60
2006,08,13,08,27,16.60
2006,08,13,08,28,16.70
2006,08,13,08,29,16.80
2006,08,13,08,30,16.90
2006,08,13,08,31,16.90
2006,08,13,08,32,17.00
2006,08,13,08,33,17.00
2006,08,13,08,34,17.10
2006,08,13,08,35,17.10
2006,08,13,08,36,17.10
2006,08,13,08,37,17.10
2006,08,13,08,38,17.20
2006,08,13,08,39,17.30
2006,08,13,08,40,17.30
2006,08,13,08,41,17.50
2006,08,13,08,42,17.60
2006,08,13,08,43,17.80
2006,08,13,08,44,17.90
2006,08,13,08,45,18.00
2006,08,13,08,46,18.20
2006,08,13,08,47,18.20
2006,08,13,08,48,18.40
2006,08,13,08,49,18.50
2006,08,13,08,50,18.60
2006,08,13,08,51,18.60
2006,08,13,08,52,18.60
2006,08,13,08,53,18.80
2006,08,13,08,54,18.90
2006,08,13,08,55,19.00
2006,08,13,08,56,19.10
2006,08,13,08,57,19.30
2006,08,13,08,58,19.40
2006,08,13,08,59,19.50
2006,08,13,09,00,19.60
2006,08,13,09,01,19.60
2006,08,13,09,02,19.60
2006,08,13,09,03,19.70
2006,08,13,09,04,19.70
2006,08,13,09,05,19.70
2006,08,13,09,06,19.80
2006,08,13,09,07,19.80
2006,08,13,09,08,19.80
2006,08,13,09,09,19.90
2006,08,13,09,10,19.90
2006,08,13,09,11,19.90
2006,08,13,09,12,20.00
2006,08,13,09,13,20.10
2006,08,13,09,14,20.20
2006,08,13,09,15,20.20
2006,08,13,09,16,20.20
2006,08,13,09,17,20.40
2006,08,13,09,18,20.40
2006,08,13,09,19,20.50
2006,08,13,09,20,20.60
2006,08,13,09,21,20.60
2006,08,13,09,22,20.50
2006,08,13,09,23,20.40
2006,08,13,09,24,20.30
2006,08,13,09,25,20.20
2006,08,13,09,26,20.20
2006,08,13,09,27,20.20
2006,08,13,09,28,20.20
2006,08,13,09,29,20.10
2006,08,13,09,30,20.00
2006,08,13,09,31,20.00
2006,08,13,09,32,20.10
2006,08,13,09,33,20.10
2006,08,13,09,34,20.20
2006,08,13,09,35,20.20
2006,08,13,09,36,20.30
2006,08,13,09,37,20.30
2006,08,13,09,38,20.20
2006,08,13,09,39,20.20
2006,08,13,09,40,20.30
2006,08,13,09,41,20.40
2006,08,13,09,42,20.40
2006,08,13,09,43,20.40
2006,08,13,09,44,20.40
2006,08,13,09,45,20.30
2006,08,13,09,46,20.30
2006,08,13,09,47,20.40
2006,08,13,09,48,20.50
2006,08,13,09,49,20.50
2006,08,13,09,50,20.50
2006,08,13,09,51,20.50
2006,08,13,09,52,20.50
2006,08,13,09,53,20.60
2006,08,13,09,54,20.70
2006,08,13,09,55,20.80
2006,08,13,09,56,20.80
2006,08,13,09,57,21.00
2006,08,13,09,58,21.00
2006,08,13,09,59,21.00
2006,08,13,10,00,21.00
2006,08,13,10,01,21.10
2006,08,13,10,02,21.10
2006,08,13,10,03,21.10
2006,08,13,10,04,21.20
2006,08,13,10,05,21.10
2006,08,13,10,06,21.10
2006,08,13,10,07,21.00
2006,08,13,10,08,20.90
2006,08,13,10,09,20.90
2006,08,13,10,10,20.90
2006,08,13,10,11,20.90
2006,08,13,10,12,20.90
2006,08,13,10,13,21.00
2006,08,13,10,14,21.10
2006,08,13,10,15,21.20
2006,08,13,10,16,21.30
2006,08,13,10,17,21.40
2006,08,13,10,18,21.40
2006,08,13,10,19,21.40
2006,08,13,10,20,21.30
2006,08,13,10,21,21.10
2006,08,13,10,22,21.10
2006,08,13,10,23,21.10
2006,08,13,10,24,21.10
2006,08,13,10,25,21.10
2006,08,13,10,26,21.10
2006,08,13,10,27,21.20
2006,08,13,10,28,21.20
2006,08,13,10,29,21.10
2006,08,13,10,30,21.10
2006,08,13,10,31,21.10
2006,08,13,10,32,21.00
2006,08,13,10,33,21.10
2006,08,13,10,34,21.00
2006,08,13,10,35,21.10
2006,08,13,10,36,21.20
2006,08,13,10,37,21.30
2006,08,13,10,38,21.20
2006,08,13,10,39,21.10
2006,08,13,10,40,21.10
2006,08,13,10,41,21.00
2006,08,13,10,42,21.00
2006,08,13,10,43,21.00
2006,08,13,10,44,21.00
2006,08,13,10,45,21.10
2006,08,13,10,46,21.10
2006,08,13,10,47,21.20
2006,08,13,10,48,21.30
2006,08,13,10,49,21.20
2006,08,13,10,50,21.20
2006,08,13,10,51,21.20
2006,08,13,10,52,21.30
2006,08,13,10,53,21.20
2006,08,13,10,54,21.20
2006,08,13,10,55,21.30
2006,08,13,10,56,21.30
2006,08,13,10,57,21.50
2006,08,13,10,58,21.60
2006,08,13,10,59,21.60
2006,08,13,11,00,21.60
2006,08,13,11,01,21.50
2006,08,13,11,02,21.40
2006,08,13,11,03,21.30
2006,08,13,11,04,21.30
2006,08,13,11,05,21.30
2006,08,13,11,06,21.40
2006,08,13,11,07,21.50
2006,08,13,11,08,21.60
2006,08,13,11,09,21.60
2006,08,13,11,10,21.60
2006,08,13,11,11,21.60
2006,08,13,11,12,21.70
2006,08,13,11,13,21.90
2006,08,13,11,14,22.00
2006,08,13,11,15,22.10
2006,08,13,11,16,22.00
2006,08,13,11,17,21.90
2006,08,13,11,18,21.90
2006,08,13,11,19,21.70
2006,08,13,11,20,21.60
2006,08,13,11,21,21.50
2006,08,13,11,22,21.50
2006,08,13,11,23,21.50
2006,08,13,11,24,21.40
2006,08,13,11,25,21.30
2006,08,13,11,26,21.40
2006,08,13,11,27,21.40
2006,08,13,11,28,21.50
2006,08,13,11,29,21.60
2006,08,13,11,30,21.60
2006,08,13,11,31,21.50
2006,08,13,11,32,21.30
2006,08,13,11,33,21.30
2006,08,13,11,34,21.40
2006,08,13,11,35,21.60
2006,08,13,11,36,21.60
2006,08,13,11,37,21.70
2006,08,13,11,38,21.70
2006,08,13,11,39,21.70
2006,08,13,11,40,21.70
2006,08,13,11,41,21.60
2006,08,13,11,42,21.70
2006,08,13,11,43,21.80
2006,08,13,11,44,21.80
2006,08,13,11,45,21.70
2006,08,13,11,46,21.60
2006,08,13,11,47,21.60
2006,08,13,11,48,21.60
2006,08,13,11,49,21.80
2006,08,13,11,50,21.90
2006,08,13,11,51,22.00
2006,08,13,11,52,22.10
2006,08,13,11,53,22.00
2006,08,13,11,54,22.00
2006,08,13,11,55,21.80
2006,08,13,11,56,21.60
2006,08,13,11,57,21.60
2006,08,13,11,58,21.60
2006,08,13,11,59,21.70
2006,08,13,12,00,21.80
2006,08,13,12,01,21.90
2006,08,13,12,02,21.90
2006,08,13,12,03,22.00
2006,08,13,12,04,22.00
2006,08,13,12,05,22.00
2006,08,13,12,06,21.90
2006,08,13,12,07,21.90
2006,08,13,12,08,21.80
2006,08,13,12,09,21.90
2006,08,13,12,10,21.80
2006,08,13,12,11,21.80
2006,08,13,12,12,21.80
2006,08,13,12,13,21.80
2006,08,13,12,14,21.70
2006,08,13,12,15,21.60
2006,08,13,12,16,21.60
2006,08,13,12,17,21.60
2006,08,13,12,18,21.60
2006,08,13,12,19,21.70
2006,08,13,12,20,21.70
2006,08,13,12,21,21.70
2006,08,13,12,22,21.70
2006,08,13,12,23,21.70
2006,08,13,12,24,21.70
2006,08,13,12,25,21.70
2006,08,13,12,26,21.80
2006,08,13,12,27,21.80
2006,08,13,12,28,21.80
2006,08,13,12,29,21.90
2006,08,13,12,30,22.10
2006,08,13,12,31,22.30
2006,08,13,12,32,22.40
2006,08,13,12,33,22.50
2006,08,13,12,34,22.40
2006,08,13,12,35,22.40
2006,08,13,12,36,22.30
2006,08,13,12,37,22.20
2006,08,13,12,38,22.30
2006,08,13,12,39,22.30
2006,08,13,12,40,22.30
2006,08,13,12,41,22.30
2006,08,13,12,42,22.30
2006,08,13,12,43,22.30
2006,08,13,12,44,22.40
2006,08,13,12,45,22.50
2006,08,13,12,46,22.60
2006,08,13,12,47,22.50
2006,08,13,12,48,22.50
2006,08,13,12,49,22.40
2006,08,13,12,50,22.40
2006,08,13,12,51,22.40
2006,08,13,12,52,22.40
2006,08,13,12,53,22.40
2006,08,13,12,54,22.60
2006,08,13,12,55,22.60
2006,08,13,12,56,22.60
2006,08,13,12,57,22.70
2006,08,13,12,58,22.90
2006,08,13,12,59,22.90
2006,08,13,13,00,22.90
2006,08,13,13,01,22.90
2006,08,13,13,02,22.90
2006,08,13,13,03,22.90
2006,08,13,13,04,23.00
2006,08,13,13,05,23.00
2006,08,13,13,06,23.00
2006,08,13,13,07,22.90
2006,08,13,13,08,22.80
2006,08,13,13,09,22.60
2006,08,13,13,10,22.40
2006,08,13,13,11,22.30
2006,08,13,13,12,22.40
2006,08,13,13,13,22.50
2006,08,13,13,14,22.50
2006,08,13,13,15,22.60
2006,08,13,13,16,22.70
2006,08,13,13,17,22.70
2006,08,13,13,18,22.70
2006,08,13,13,19,22.70
2006,08,13,13,20,22.90
2006,08,13,13,21,22.90
2006,08,13,13,22,22.90
2006,08,13,13,23,23.00
2006,08,13,13,24,23.00
2006,08,13,13,25,22.90
2006,08,13,13,26,22.90
2006,08,13,13,27,22.90
2006,08,13,13,28,22.90
2006,08,13,13,29,22.90
2006,08,13,13,30,22.80
2006,08,13,13,31,22.70
2006,08,13,13,32,22.70
2006,08,13,13,33,22.80
2006,08,13,13,34,22.90
2006,08,13,13,35,23.00
2006,08,13,13,36,23.10
2006,08,13,13,37,23.10
2006,08,13,13,38,23.10
2006,08,13,13,39,23.00
2006,08,13,13,40,23.10
2006,08,13,13,41,23.20
2006,08,13,13,42,23.20
2006,08,13,13,43,23.20
2006,08,13,13,44,23.30
2006,08,13,13,45,23.30
2006,08,13,13,46,23.20
2006,08,13,13,47,23.20
2006,08,13,13,48,23.30
2006,08,13,13,49,23.30
2006,08,13,13,50,23.60
2006,08,13,13,51,23.60
2006,08,13,13,52,23.50
2006,08,13,13,53,23.30
2006,08,13,13,54,23.30
2006,08,13,13,55,23.30
2006,08,13,13,56,23.40
2006,08,13,13,57,23.50
2006,08,13,13,58,23.70
2006,08,13,13,59,23.60
2006,08,13,14,00,23.50
2006,08,13,14,01,23.60
2006,08,13,14,02,23.50
2006,08,13,14,03,23.40
2006,08,13,14,04,23.40
2006,08,13,14,05,23.40
2006,08,13,14,06,23.40
2006,08,13,14,07,23.40
2006,08,13,14,08,23.40
2006,08,13,14,09,23.40
2006,08,13,14,10,23.40
2006,08,13,14,11,23.40
2006,08,13,14,12,23.40
2006,08,13,14,13,23.50
2006,08,13,14,14,23.70
2006,08,13,14,15,23.70
2006,08,13,14,16,23.70
2006,08,13,14,17,23.60
2006,08,13,14,18,23.60
2006,08,13,14,19,23.70
2006,08,13,14,20,23.70
2006,08,13,14,21,23.80
2006,08,13,14,22,23.80
2006,08,13,14,23,23.80
2006,08,13,14,24,23.80
2006,08,13,14,25,23.80
2006,08,13,14,26,23.80
2006,08,13,14,27,23.80
2006,08,13,14,28,23.90
2006,08,13,14,29,23.90
2006,08,13,14,30,23.80
2006,08,13,14,31,23.90
2006,08,13,14,32,23.90
2006,08,13,14,33,23.90
2006,08,13,14,34,23.90
2006,08,13,14,35,23.90
2006,08,13,14,36,24.00
2006,08,13,14,37,24.20
2006,08,13,14,38,24.30
2006,08,13,14,39,24.50
2006,08,13,14,40,24.60
2006,08,13,14,41,24.60
2006,08,13,14,42,24.50
2006,08,13,14,43,24.30
2006,08,13,14,44,24.30
2006,08,13,14,45,24.20
2006,08,13,14,46,24.10
2006,08,13,14,47,24.10
2006,08,13,14,48,24.00
2006,08,13,14,49,24.10
2006,08,13,14,50,24.10
2006,08,13,14,51,24.10
2006,08,13,14,52,24.10
2006,08,13,14,53,23.90
2006,08,13,14,54,23.90
2006,08,13,14,55,24.10
2006,08,13,14,56,24.20
2006,08,13,14,57,24.20
2006,08,13,14,58,24.10
2006,08,13,14,59,24.00
2006,08,13,15,00,23.80
2006,08,13,15,01,23.80
2006,08,13,15,02,24.00
2006,08,13,15,03,24.10
2006,08,13,15,04,24.10
2006,08,13,15,05,24.10
2006,08,13,15,06,24.20
2006,08,13,15,07,24.30
2006,08,13,15,08,24.30
2006,08,13,15,09,24.40
2006,08,13,15,10,24.40
2006,08,13,15,11,24.40
2006,08,13,15,12,24.30
2006,08,13,15,13,24.30
2006,08,13,15,14,24.20
2006,08,13,15,15,24.30
2006,08,13,15,16,24.40
2006,08,13,15,17,24.50
2006,08,13,15,18,24.60
2006,08,13,15,19,24.70
2006,08,13,15,20,24.80
2006,08,13,15,21,24.90
2006,08,13,15,22,24.90
2006,08,13,15,23,24.80
2006,08,13,15,24,24.70
2006,08,13,15,25,24.50
2006,08,13,15,26,24.50
2006,08,13,15,27,24.40
2006,08,13,15,28,24.30
2006,08,13,15,29,24.40
2006,08,13,15,30,24.50
2006,08,13,15,31,24.60
2006,08,13,15,32,24.60
2006,08,13,15,33,24.50
2006,08,13,15,34,24.50
2006,08,13,15,35,24.50
2006,08,13,15,36,24.50
2006,08,13,15,37,24.60
2006,08,13,15,38,24.60
2006,08,13,15,39,24.70
2006,08,13,15,40,24.70
2006,08,13,15,41,24.70
2006,08,13,15,42,24.70
2006,08,13,15,43,24.70
2006,08,13,15,44,24.80
2006,08,13,15,45,24.90
2006,08,13,15,46,24.90
2006,08,13,15,47,24.90
2006,08,13,15,48,24.90
2006,08,13,15,49,24.90
2006,08,13,15,50,25.00
2006,08,13,15,51,25.10
2006,08,13,15,52,25.20
2006,08,13,15,53,25.20
2006,08,13,15,54,25.20
2006,08,13,15,55,25.20
2006,08,13,15,56,25.30
2006,08,13,15,57,25.20
2006,08,13,15,58,25.10
2006,08,13,15,59,25.10
2006,08,13,16,00,25.10
2006,08,13,16,01,25.10
2006,08,13,16,02,25.20
2006,08,13,16,03,25.10
2006,08,13,16,04,25.10
2006,08,13,16,05,25.10
2006,08,13,16,06,25.10
2006,08,13,16,07,25.20
2006,08,13,16,08,25.20
2006,08,13,16,09,25.30
2006,08,13,16,10,25.50
2006,08,13,16,11,25.60
2006,08,13,16,12,25.80
2006,08,13,16,13,26.00
2006,08,13,16,14,26.10
2006,08,13,16,15,25.90
2006,08,13,16,16,25.80
2006,08,13,16,17,25.70
2006,08,13,16,18,25.60
2006,08,13,16,19,25.40
2006,08,13,16,20,25.40
2006,08,13,16,21,25.30
2006,08,13,16,22,25.10
2006,08,13,16,23,24.90
2006,08,13,16,24,24.70
2006,08,13,16,25,24.50
2006,08,13,16,26,24.50
2006,08,13,16,27,24.40
2006,08,13,16,28,24.40
2006,08,13,16,29,24.40
2006,08,13,16,30,24.40
2006,08,13,16,31,24.30
2006,08,13,16,32,24.20
2006,08,13,16,33,24.10
2006,08,13,16,34,24.10
2006,08,13,16,35,24.10
2006,08,13,16,36,24.10
2006,08,13,16,37,23.90
2006,08,13,16,38,23.70
2006,08,13,16,39,23.50
2006,08,13,16,40,23.20
2006,08,13,16,41,23.10
2006,08,13,16,42,23.10
2006,08,13,16,43,23.00
2006,08,13,16,44,22.90
2006,08,13,16,45,22.90
2006,08,13,16,46,22.80
2006,08,13,16,47,22.80
2006,08,13,16,48,22.80
2006,08,13,16,49,22.80
2006,08,13,16,50,22.90
2006,08,13,16,51,22.90
2006,08,13,16,52,23.00
2006,08,13,16,53,23.10
2006,08,13,16,54,23.30
2006,08,13,16,55,23.30
2006,08,13,16,56,23.30
2006,08,13,16,57,23.30
2006,08,13,16,58,23.40
2006,08,13,16,59,23.40
2006,08,13,17,00,23.30
2006,08,13,17,01,23.20
2006,08,13,17,02,23.20
2006,08,13,17,03,23.20
2006,08,13,17,04,23.20
2006,08,13,17,05,23.10
2006,08,13,17,06,22.90
2006,08,13,17,07,22.90
2006,08,13,17,08,22.90
2006,08,13,17,09,22.90
2006,08,13,17,10,22.90
2006,08,13,17,11,22.90
2006,08,13,17,12,22.90
2006,08,13,17,13,22.90
2006,08,13,17,14,23.10
2006,08,13,17,15,23.10
2006,08,13,17,16,23.10
2006,08,13,17,17,22.90
2006,08,13,17,18,22.90
2006,08,13,17,19,22.90